Time,TemperatureF,DewpointF,PressureIn,WindDirection,WindDirectionDegrees,WindSpeedMPH,WindSpeedGustMPH,Humidity,HourlyPrecipIn,Conditions,Clouds,dailyrainin,SoftwareType,DateUTC
2017-09-19 00:00:00,65.7,65.1,30.07,NNW,327,5.0,10.0,98,0.00,,,0.00,VWS V15.00,2017-09-19 04:00:00,
2017-09-19 00:01:00,65.7,65.1,30.07,NNW,338,4.0,5.0,98,0.00,,,0.00,VWS V15.00,2017-09-19 04:01:00,
2017-09-19 00:02:00,65.7,65.1,30.07,NNW,341,4.0,5.0,98,0.00,,,0.00,VWS V15.00,2017-09-19 04:02:00,
2017-09-19 00:03:00,65.7,65.1,30.07,NNW,341,0.0,5.0,98,0.00,,,0.00,VWS V15.00,2017-09-19 04:03:00,
2017-09-19 00:04:00,65.7,65.1,30.07,NNW,343,1.0,6.0,98,0.00,,,0.00,VWS V15.00,2017-09-19 04:04:00,
2017-09-19 00:05:00,65.7,65.1,30.07,NNW,343,2.0,6.0,98,0.00,,,0.00,VWS V15.00,2017-09-19 04:05:00,
2017-09-19 00:06:00,65.7,65.1,30.07,NNW,343,4.0,6.0,98,0.00,,,0.00,VWS V15.00,2017-09-19 04:06:00,
2017-09-19 00:07:00,65.7,65.1,30.07,NNW,344,5.0,6.0,98,0.00,,,0.00,VWS V15.00,2017-09-19 04:07:00,
2017-09-19 00:08:00,65.7,65.1,30.07,NNW,348,5.0,6.0,98,0.00,,,0.00,VWS V15.00,2017-09-19 04:08:00,
2017-09-19 00:09:00,65.7,65.1,30.07,North,350,0.0,6.0,98,0.00,,,0.00,VWS V15.00,2017-09-19 04:09:00,
2017-09-19 00:10:00,65.7,65.1,30.07,NNW,347,2.0,6.0,98,0.00,,,0.00,VWS V15.00,2017-09-19 04:10:00,
2017-09-19 00:11:00,65.7,65.1,30.07,NNW,347,3.0,6.0,98,0.00,,,0.00,VWS V15.00,2017-09-19 04:11:00,
2017-09-19 00:12:00,65.8,65.2,30.07,NNW,347,3.0,6.0,98,0.00,,,0.00,VWS V15.00,2017-09-19 04:12:00,
2017-09-19 00:13:00,65.8,65.2,30.07,NNW,346,0.0,6.0,98,0.00,,,0.00,VWS V15.00,2017-09-19 04:13:00,
2017-09-19 00:14:00,65.8,65.2,30.07,NNW,346,3.0,6.0,98,0.00,,,0.00,VWS V15.00,2017-09-19 04:14:00,
2017-09-19 00:15:00,65.8,65.2,30.07,NNW,345,0.0,6.0,98,0.00,,,0.00,VWS V15.00,2017-09-19 04:15:00,
2017-09-19 00:16:00,65.8,65.2,30.07,NNW,345,3.0,6.0,98,0.00,,,0.00,VWS V15.00,2017-09-19 04:16:00,
2017-09-19 00:17:00,65.8,65.2,30.07,NNW,345,4.0,6.0,98,0.00,,,0.00,VWS V15.00,2017-09-19 04:17:00,
2017-09-19 00:18:00,65.8,65.2,30.07,NNW,344,4.0,6.0,98,0.00,,,0.00,VWS V15.00,2017-09-19 04:18:00,
2017-09-19 00:19:00,65.8,65.2,30.07,NNW,344,0.0,6.0,98,0.00,,,0.00,VWS V15.00,2017-09-19 04:19:00,
2017-09-19 00:20:00,65.8,65.2,30.07,NNE,25,0.0,6.0,98,0.00,,,0.00,VWS V15.00,2017-09-19 04:20:00,
2017-09-19 00:21:00,65.8,65.2,30.07,North,355,3.0,6.0,98,0.00,,,0.00,VWS V15.00,2017-09-19 04:21:00,
2017-09-19 00:22:00,65.8,65.2,30.07,West,260,0.0,6.0,98,0.00,,,0.00,VWS V15.00,2017-09-19 04:22:00,
2017-09-19 00:23:00,65.8,65.2,30.07,West,273,2.0,6.0,98,0.00,,,0.00,VWS V15.00,2017-09-19 04:23:00,
2017-09-19 00:24:00,65.8,65.2,30.07,North,360,1.0,6.0,98,0.00,,,0.00,VWS V15.00,2017-09-19 04:24:00,
2017-09-19 00:25:00,65.8,65.2,30.07,North,355,2.0,6.0,98,0.00,,,0.00,VWS V15.00,2017-09-19 04:25:00,
2017-09-19 00:26:00,65.8,65.2,30.07,North,355,1.0,6.0,98,0.00,,,0.00,VWS V15.00,2017-09-19 04:26:00,
2017-09-19 00:27:00,65.9,65.3,30.06,North,355,2.0,6.0,98,0.00,,,0.00,VWS V15.00,2017-09-19 04:27:00,
2017-09-19 00:28:00,65.9,65.3,30.07,North,355,1.0,6.0,98,0.00,,,0.00,VWS V15.00,2017-09-19 04:28:00,
2017-09-19 00:29:00,65.9,65.3,30.06,North,355,2.0,6.0,98,0.00,,,0.00,VWS V15.00,2017-09-19 04:29:00,
2017-09-19 00:30:00,65.9,65.3,30.06,North,355,2.0,6.0,98,0.00,,,0.00,VWS V15.00,2017-09-19 04:30:00,
2017-09-19 00:31:00,65.9,65.3,30.07,North,355,5.0,6.0,98,0.00,,,0.00,VWS V15.00,2017-09-19 04:31:00,
2017-09-19 00:32:00,65.9,65.3,30.06,NNW,348,5.0,7.0,98,0.00,,,0.00,VWS V15.00,2017-09-19 04:32:00,
2017-09-19 00:33:00,65.9,65.3,30.06,NNW,347,4.0,7.0,98,0.00,,,0.00,VWS V15.00,2017-09-19 04:33:00,
2017-09-19 00:34:00,65.9,65.3,30.06,NNW,340,2.0,7.0,98,0.00,,,0.00,VWS V15.00,2017-09-19 04:34:00,
2017-09-19 00:35:00,65.9,65.3,30.06,North,350,5.0,7.0,98,0.00,,,0.00,VWS V15.00,2017-09-19 04:35:00,
2017-09-19 00:36:00,65.9,65.3,30.06,NNW,344,2.0,7.0,98,0.00,,,0.00,VWS V15.00,2017-09-19 04:36:00,
2017-09-19 00:37:00,65.9,65.3,30.06,NNW,329,3.0,7.0,98,0.00,,,0.00,VWS V15.00,2017-09-19 04:37:00,
2017-09-19 00:38:00,65.9,65.3,30.06,NNW,345,3.0,7.0,98,0.00,,,0.00,VWS V15.00,2017-09-19 04:38:00,
2017-09-19 00:39:00,66.0,65.4,30.06,NNW,344,3.0,7.0,98,0.00,,,0.00,VWS V15.00,2017-09-19 04:39:00,
2017-09-19 00:40:00,65.9,65.3,30.06,NNW,346,0.0,7.0,98,0.00,,,0.00,VWS V15.00,2017-09-19 04:40:00,
2017-09-19 00:41:00,66.0,65.4,30.06,NNW,346,3.0,7.0,98,0.00,,,0.00,VWS V15.00,2017-09-19 04:41:00,
2017-09-19 00:42:00,65.9,65.3,30.06,NNW,346,4.0,7.0,98,0.00,,,0.00,VWS V15.00,2017-09-19 04:42:00,
2017-09-19 00:43:00,66.0,65.4,30.06,NNW,346,3.0,7.0,98,0.00,,,0.00,VWS V15.00,2017-09-19 04:43:00,
2017-09-19 00:44:00,66.0,65.4,30.06,NNW,346,3.0,7.0,98,0.00,,,0.00,VWS V15.00,2017-09-19 04:44:00,
2017-09-19 00:45:00,66.0,65.4,30.06,NNW,344,4.0,7.0,98,0.00,,,0.00,VWS V15.00,2017-09-19 04:45:00,
2017-09-19 00:46:00,66.0,65.4,30.06,NNW,348,5.0,7.0,98,0.00,,,0.00,VWS V15.00,2017-09-19 04:46:00,
2017-09-19 00:47:00,66.0,65.4,30.06,NNW,342,3.0,7.0,98,0.00,,,0.00,VWS V15.00,2017-09-19 04:47:00,
2017-09-19 00:48:00,66.0,65.4,30.06,NNW,344,4.0,7.0,98,0.00,,,0.00,VWS V15.00,2017-09-19 04:48:00,
2017-09-19 00:49:00,66.0,65.4,30.06,NNW,329,2.0,7.0,98,0.00,,,0.00,VWS V15.00,2017-09-19 04:49:00,
2017-09-19 00:50:00,66.0,65.4,30.06,NNW,342,5.0,7.0,98,0.00,,,0.00,VWS V15.00,2017-09-19 04:50:00,
2017-09-19 00:51:00,66.0,65.4,30.06,NNW,343,6.0,7.0,98,0.00,,,0.00,VWS V15.00,2017-09-19 04:51:00,
2017-09-19 00:52:00,66.0,65.4,30.05,NNW,348,4.0,7.0,98,0.00,,,0.00,VWS V15.00,2017-09-19 04:52:00,
2017-09-19 00:53:00,66.0,65.4,30.05,NNW,348,5.0,7.0,98,0.00,,,0.00,VWS V15.00,2017-09-19 04:53:00,
2017-09-19 00:54:00,66.0,65.4,30.05,NNW,348,4.0,7.0,98,0.00,,,0.00,VWS V15.00,2017-09-19 04:54:00,
2017-09-19 00:55:00,66.0,65.4,30.05,NNW,344,4.0,7.0,98,0.00,,,0.00,VWS V15.00,2017-09-19 04:55:00,
2017-09-19 00:56:00,66.1,65.5,30.05,NNW,340,3.0,7.0,98,0.00,,,0.00,VWS V15.00,2017-09-19 04:56:00,
2017-09-19 00:57:00,66.1,65.5,30.05,NW,318,3.0,7.0,98,0.00,,,0.00,VWS V15.00,2017-09-19 04:57:00,
2017-09-19 00:58:00,66.1,65.5,30.05,NNW,348,5.0,7.0,98,0.00,,,0.00,VWS V15.00,2017-09-19 04:58:00,
2017-09-19 00:59:00,66.1,65.5,30.05,NNW,348,2.0,7.0,98,0.00,,,0.00,VWS V15.00,2017-09-19 04:59:00,
2017-09-19 01:00:00,66.1,65.5,30.05,NNW,331,1.0,7.0,98,0.00,,,0.00,VWS V15.00,2017-09-19 05:00:00,
2017-09-19 01:01:00,66.1,65.5,30.05,NNW,336,0.0,3.0,98,0.00,,,0.00,VWS V15.00,2017-09-19 05:01:00,
2017-09-19 01:02:00,66.2,65.6,30.05,NNW,336,2.0,3.0,98,0.00,,,0.00,VWS V15.00,2017-09-19 05:02:00,
2017-09-19 01:03:00,66.2,65.6,30.05,NNW,348,3.0,4.0,98,0.00,,,0.00,VWS V15.00,2017-09-19 05:03:00,
2017-09-19 01:04:00,66.2,65.6,30.05,NNE,15,0.0,4.0,98,0.00,,,0.00,VWS V15.00,2017-09-19 05:04:00,
2017-09-19 01:05:00,66.2,65.6,30.05,NNW,342,2.0,7.0,98,0.00,,,0.00,VWS V15.00,2017-09-19 05:05:00,
2017-09-19 01:06:00,66.2,65.6,30.05,NNW,342,3.0,7.0,98,0.00,,,0.00,VWS V15.00,2017-09-19 05:06:00,
2017-09-19 01:07:00,66.2,65.6,30.05,NNW,347,4.0,7.0,98,0.00,,,0.00,VWS V15.00,2017-09-19 05:07:00,
2017-09-19 01:08:00,66.2,65.6,30.05,North,349,4.0,7.0,98,0.00,,,0.00,VWS V15.00,2017-09-19 05:08:00,
2017-09-19 01:09:00,66.2,65.6,30.06,NNW,348,2.0,7.0,98,0.00,,,0.00,VWS V15.00,2017-09-19 05:09:00,
2017-09-19 01:10:00,66.2,65.6,30.06,NNW,347,0.0,7.0,98,0.00,,,0.00,VWS V15.00,2017-09-19 05:10:00,
2017-09-19 01:11:00,66.3,65.7,30.06,NNW,347,2.0,7.0,98,0.00,,,0.00,VWS V15.00,2017-09-19 05:11:00,
2017-09-19 01:12:00,66.3,65.7,30.06,NNW,346,3.0,7.0,98,0.00,,,0.00,VWS V15.00,2017-09-19 05:12:00,
2017-09-19 01:13:00,66.3,65.7,30.06,NNW,347,0.0,7.0,98,0.00,,,0.00,VWS V15.00,2017-09-19 05:13:00,
2017-09-19 01:14:00,66.3,65.7,30.06,NNW,348,4.0,7.0,98,0.00,,,0.00,VWS V15.00,2017-09-19 05:14:00,
2017-09-19 01:15:00,66.3,65.7,30.06,NNW,342,4.0,7.0,98,0.00,,,0.00,VWS V15.00,2017-09-19 05:15:00,
2017-09-19 01:16:00,66.3,65.7,30.06,NNW,329,3.0,7.0,98,0.00,,,0.00,VWS V15.00,2017-09-19 05:16:00,
2017-09-19 01:17:00,66.3,65.7,30.06,NNW,337,1.0,7.0,98,0.00,,,0.00,VWS V15.00,2017-09-19 05:17:00,
2017-09-19 01:18:00,66.3,65.7,30.06,North,355,3.0,7.0,98,0.00,,,0.00,VWS V15.00,2017-09-19 05:18:00,
2017-09-19 01:19:00,66.3,65.7,30.06,NNW,342,8.0,8.0,98,0.00,,,0.00,VWS V15.00,2017-09-19 05:19:00,
2017-09-19 01:20:00,66.3,65.7,30.06,NNW,344,6.0,8.0,98,0.00,,,0.00,VWS V15.00,2017-09-19 05:20:00,
2017-09-19 01:21:00,66.3,65.7,30.06,NNW,344,4.0,8.0,98,0.00,,,0.00,VWS V15.00,2017-09-19 05:21:00,
2017-09-19 01:22:00,66.2,65.6,30.06,NNW,342,5.0,8.0,98,0.00,,,0.00,VWS V15.00,2017-09-19 05:22:00,
2017-09-19 01:23:00,66.2,65.6,30.06,NNW,346,4.0,8.0,98,0.00,,,0.00,VWS V15.00,2017-09-19 05:23:00,
2017-09-19 01:24:00,66.2,65.6,30.06,NNW,347,0.0,8.0,98,0.00,,,0.00,VWS V15.00,2017-09-19 05:24:00,
2017-09-19 01:25:00,66.2,65.6,30.06,North,350,5.0,8.0,98,0.00,,,0.00,VWS V15.00,2017-09-19 05:25:00,
2017-09-19 01:26:00,66.2,65.6,30.06,NW,326,5.0,8.0,98,0.00,,,0.00,VWS V15.00,2017-09-19 05:26:00,
2017-09-19 01:27:00,66.2,65.6,30.06,North,355,6.0,8.0,98,0.00,,,0.00,VWS V15.00,2017-09-19 05:27:00,
2017-09-19 01:28:00,66.2,65.6,30.06,North,355,4.0,8.0,98,0.00,,,0.00,VWS V15.00,2017-09-19 05:28:00,
2017-09-19 01:29:00,66.2,65.6,30.06,North,349,4.0,8.0,98,0.00,,,0.00,VWS V15.00,2017-09-19 05:29:00,
2017-09-19 01:30:00,66.1,65.5,30.06,NNW,339,4.0,8.0,98,0.00,,,0.00,VWS V15.00,2017-09-19 05:30:00,
2017-09-19 01:31:00,66.1,65.5,30.06,NNW,347,8.0,9.0,98,0.00,,,0.00,VWS V15.00,2017-09-19 05:31:00,
2017-09-19 01:32:00,66.1,65.5,30.06,NW,325,7.0,9.0,98,0.00,,,0.00,VWS V15.00,2017-09-19 05:32:00,
2017-09-19 01:33:00,66.1,65.5,30.06,North,355,1.0,9.0,98,0.00,,,0.00,VWS V15.00,2017-09-19 05:33:00,
2017-09-19 01:34:00,66.1,65.5,30.06,NW,323,5.0,9.0,98,0.00,,,0.00,VWS V15.00,2017-09-19 05:34:00,
2017-09-19 01:35:00,66.1,65.5,30.06,NNW,343,1.0,9.0,98,0.00,,,0.00,VWS V15.00,2017-09-19 05:35:00,
2017-09-19 01:36:00,66.1,65.5,30.06,NNW,348,6.0,9.0,98,0.00,,,0.00,VWS V15.00,2017-09-19 05:36:00,
2017-09-19 01:37:00,66.1,65.5,30.05,NNW,348,5.0,9.0,98,0.00,,,0.00,VWS V15.00,2017-09-19 05:37:00,
2017-09-19 01:38:00,66.1,65.5,30.05,NNW,346,4.0,9.0,98,0.00,,,0.00,VWS V15.00,2017-09-19 05:38:00,
2017-09-19 01:39:00,66.1,65.5,30.05,NNW,348,5.0,9.0,98,0.00,,,0.00,VWS V15.00,2017-09-19 05:39:00,
2017-09-19 01:40:00,66.0,65.4,30.05,NNW,348,7.0,11.0,98,0.00,,,0.00,VWS V15.00,2017-09-19 05:40:00,
2017-09-19 01:41:00,66.0,65.4,30.05,NNW,344,6.0,11.0,98,0.00,,,0.00,VWS V15.00,2017-09-19 05:41:00,
2017-09-19 01:42:00,65.9,65.3,30.05,NNW,347,5.0,11.0,98,0.00,,,0.00,VWS V15.00,2017-09-19 05:42:00,
2017-09-19 01:43:00,65.9,65.3,30.05,NNW,342,7.0,11.0,98,0.00,,,0.00,VWS V15.00,2017-09-19 05:43:00,
2017-09-19 01:44:00,65.9,65.3,30.05,North,351,2.0,11.0,98,0.00,,,0.00,VWS V15.00,2017-09-19 05:44:00,
2017-09-19 01:45:00,65.9,65.3,30.05,North,349,2.0,11.0,98,0.00,,,0.00,VWS V15.00,2017-09-19 05:45:00,
2017-09-19 01:46:00,65.8,65.2,30.05,NNW,348,2.0,11.0,98,0.00,,,0.00,VWS V15.00,2017-09-19 05:46:00,
2017-09-19 01:47:00,65.8,65.2,30.06,NNW,348,5.0,11.0,98,0.00,,,0.00,VWS V15.00,2017-09-19 05:47:00,
2017-09-19 01:48:00,65.8,65.2,30.06,NNW,346,7.0,11.0,98,0.00,,,0.00,VWS V15.00,2017-09-19 05:48:00,
2017-09-19 01:49:00,65.8,65.2,30.06,NNW,346,3.0,11.0,98,0.00,,,0.00,VWS V15.00,2017-09-19 05:49:00,
2017-09-19 01:50:00,65.8,65.2,30.06,NNW,347,2.0,11.0,98,0.00,,,0.00,VWS V15.00,2017-09-19 05:50:00,
2017-09-19 01:51:00,65.8,65.2,30.06,NNW,340,0.0,11.0,98,0.00,,,0.00,VWS V15.00,2017-09-19 05:51:00,
2017-09-19 01:52:00,65.7,65.1,30.06,North,360,2.0,11.0,98,0.00,,,0.00,VWS V15.00,2017-09-19 05:52:00,
2017-09-19 01:53:00,65.8,65.2,30.06,NNW,339,3.0,11.0,98,0.00,,,0.00,VWS V15.00,2017-09-19 05:53:00,
2017-09-19 01:54:00,65.7,65.1,30.06,NNW,339,1.0,11.0,98,0.00,,,0.00,VWS V15.00,2017-09-19 05:54:00,
2017-09-19 01:55:00,65.7,65.1,30.06,North,350,3.0,11.0,98,0.00,,,0.00,VWS V15.00,2017-09-19 05:55:00,
2017-09-19 01:56:00,65.7,65.1,30.06,NNW,348,2.0,11.0,98,0.00,,,0.00,VWS V15.00,2017-09-19 05:56:00,
2017-09-19 01:57:00,65.7,65.1,30.06,NNW,348,1.0,11.0,98,0.00,,,0.00,VWS V15.00,2017-09-19 05:57:00,
2017-09-19 01:58:00,65.7,65.1,30.06,NNW,343,6.0,11.0,98,0.00,,,0.00,VWS V15.00,2017-09-19 05:58:00,
2017-09-19 01:59:00,65.6,65.0,30.06,North,349,3.0,11.0,98,0.00,,,0.00,VWS V15.00,2017-09-19 05:59:00,
2017-09-19 02:00:00,65.6,65.0,30.06,NNW,340,4.0,11.0,98,0.00,,,0.00,VWS V15.00,2017-09-19 06:00:00,
2017-09-19 02:01:00,65.6,65.0,30.06,NNW,346,2.0,6.0,98,0.00,,,0.00,VWS V15.00,2017-09-19 06:01:00,
2017-09-19 02:02:00,65.7,65.1,30.06,North,355,6.0,6.0,98,0.00,,,0.00,VWS V15.00,2017-09-19 06:02:00,
2017-09-19 02:03:00,65.6,65.0,30.06,NNW,341,3.0,8.0,98,0.00,,,0.00,VWS V15.00,2017-09-19 06:03:00,
2017-09-19 02:04:00,65.7,65.1,30.06,NNW,347,3.0,8.0,98,0.00,,,0.00,VWS V15.00,2017-09-19 06:04:00,
2017-09-19 02:05:00,65.7,65.1,30.06,NNW,346,2.0,8.0,98,0.00,,,0.00,VWS V15.00,2017-09-19 06:05:00,
2017-09-19 02:06:00,65.7,65.1,30.06,NNW,347,7.0,8.0,98,0.00,,,0.00,VWS V15.00,2017-09-19 06:06:00,
2017-09-19 02:07:00,65.6,65.0,30.06,NNW,344,7.0,9.0,98,0.00,,,0.00,VWS V15.00,2017-09-19 06:07:00,
2017-09-19 02:08:00,65.6,65.0,30.06,NNW,346,4.0,9.0,98,0.00,,,0.00,VWS V15.00,2017-09-19 06:08:00,
2017-09-19 02:09:00,65.6,65.0,30.06,NNW,346,3.0,9.0,98,0.00,,,0.00,VWS V15.00,2017-09-19 06:09:00,
2017-09-19 02:10:00,65.6,65.0,30.06,North,355,4.0,9.0,98,0.00,,,0.00,VWS V15.00,2017-09-19 06:10:00,
2017-09-19 02:11:00,65.6,65.0,30.06,NNW,345,4.0,9.0,98,0.00,,,0.00,VWS V15.00,2017-09-19 06:11:00,
2017-09-19 02:12:00,65.6,65.0,30.06,NNW,345,1.0,9.0,98,0.00,,,0.00,VWS V15.00,2017-09-19 06:12:00,
2017-09-19 02:13:00,65.5,64.9,30.06,NNW,345,6.0,9.0,98,0.00,,,0.00,VWS V15.00,2017-09-19 06:13:00,
2017-09-19 02:14:00,65.5,64.9,30.06,NNW,340,5.0,9.0,98,0.00,,,0.00,VWS V15.00,2017-09-19 06:14:00,
2017-09-19 02:15:00,65.5,64.9,30.06,NNW,344,6.0,10.0,98,0.00,,,0.00,VWS V15.00,2017-09-19 06:15:00,
2017-09-19 02:16:00,65.5,64.9,30.06,NNW,348,6.0,10.0,98,0.00,,,0.00,VWS V15.00,2017-09-19 06:16:00,
2017-09-19 02:17:00,65.4,64.8,30.06,NNW,348,6.0,10.0,98,0.00,,,0.00,VWS V15.00,2017-09-19 06:17:00,
2017-09-19 02:18:00,65.5,64.9,30.06,NNW,338,4.0,10.0,98,0.00,,,0.00,VWS V15.00,2017-09-19 06:18:00,
2017-09-19 02:19:00,65.4,64.8,30.06,North,5,1.0,10.0,98,0.00,,,0.00,VWS V15.00,2017-09-19 06:19:00,
2017-09-19 02:20:00,65.4,64.8,30.06,North,360,3.0,10.0,98,0.00,,,0.00,VWS V15.00,2017-09-19 06:20:00,
2017-09-19 02:21:00,65.4,64.8,30.06,North,360,3.0,10.0,98,0.00,,,0.00,VWS V15.00,2017-09-19 06:21:00,
2017-09-19 02:22:00,65.5,64.9,30.06,NNW,346,2.0,10.0,98,0.00,,,0.00,VWS V15.00,2017-09-19 06:22:00,
2017-09-19 02:23:00,65.5,64.9,30.06,NNW,343,3.0,10.0,98,0.00,,,0.00,VWS V15.00,2017-09-19 06:23:00,
2017-09-19 02:24:00,65.5,64.9,30.06,North,350,5.0,10.0,98,0.00,,,0.00,VWS V15.00,2017-09-19 06:24:00,
2017-09-19 02:25:00,65.4,64.8,30.06,NNW,346,5.0,10.0,98,0.00,,,0.00,VWS V15.00,2017-09-19 06:25:00,
2017-09-19 02:26:00,65.5,64.9,30.06,NNW,347,2.0,10.0,98,0.00,,,0.00,VWS V15.00,2017-09-19 06:26:00,
2017-09-19 02:27:00,65.4,64.8,30.06,NNW,345,4.0,10.0,98,0.00,,,0.00,VWS V15.00,2017-09-19 06:27:00,
2017-09-19 02:28:00,65.4,64.8,30.06,NW,322,2.0,10.0,98,0.00,,,0.00,VWS V15.00,2017-09-19 06:28:00,
2017-09-19 02:29:00,65.4,64.8,30.06,North,355,1.0,10.0,98,0.00,,,0.00,VWS V15.00,2017-09-19 06:29:00,
2017-09-19 02:30:00,65.4,64.8,30.06,NW,324,3.0,10.0,98,0.00,,,0.00,VWS V15.00,2017-09-19 06:30:00,
2017-09-19 02:31:00,65.4,64.8,30.06,North,349,5.0,6.0,98,0.00,,,0.00,VWS V15.00,2017-09-19 06:31:00,
2017-09-19 02:32:00,65.4,64.8,30.06,NNW,348,2.0,6.0,98,0.00,,,0.00,VWS V15.00,2017-09-19 06:32:00,
2017-09-19 02:33:00,65.4,64.8,30.06,NNW,343,6.0,7.0,98,0.00,,,0.00,VWS V15.00,2017-09-19 06:33:00,
2017-09-19 02:34:00,65.4,64.8,30.06,North,350,3.0,8.0,98,0.00,,,0.00,VWS V15.00,2017-09-19 06:34:00,
2017-09-19 02:35:00,65.4,64.8,30.06,NNW,347,5.0,8.0,98,0.00,,,0.00,VWS V15.00,2017-09-19 06:35:00,
2017-09-19 02:36:00,65.4,64.8,30.06,NNW,345,1.0,8.0,98,0.00,,,0.00,VWS V15.00,2017-09-19 06:36:00,
2017-09-19 02:37:00,65.4,64.8,30.06,NNW,347,4.0,8.0,98,0.00,,,0.00,VWS V15.00,2017-09-19 06:37:00,
2017-09-19 02:38:00,65.4,64.8,30.06,North,355,3.0,8.0,98,0.00,,,0.00,VWS V15.00,2017-09-19 06:38:00,
2017-09-19 02:39:00,65.4,64.8,30.06,North,355,3.0,8.0,98,0.00,,,0.00,VWS V15.00,2017-09-19 06:39:00,
2017-09-19 02:40:00,65.5,64.9,30.06,NNW,348,4.0,8.0,98,0.00,,,0.00,VWS V15.00,2017-09-19 06:40:00,
2017-09-19 02:41:00,65.5,64.9,30.06,NNW,348,3.0,8.0,98,0.00,,,0.00,VWS V15.00,2017-09-19 06:41:00,
2017-09-19 02:42:00,65.4,64.8,30.06,North,350,5.0,8.0,98,0.00,,,0.00,VWS V15.00,2017-09-19 06:42:00,
2017-09-19 02:43:00,65.4,64.8,30.06,NNW,343,3.0,8.0,98,0.00,,,0.00,VWS V15.00,2017-09-19 06:43:00,
2017-09-19 02:44:00,65.4,64.8,30.06,North,5,2.0,8.0,98,0.00,,,0.00,VWS V15.00,2017-09-19 06:44:00,
2017-09-19 02:45:00,65.4,64.8,30.06,North,5,2.0,8.0,98,0.00,,,0.00,VWS V15.00,2017-09-19 06:45:00,
2017-09-19 02:46:00,65.4,64.8,30.06,NNW,348,6.0,8.0,98,0.00,,,0.00,VWS V15.00,2017-09-19 06:46:00,
2017-09-19 02:47:00,65.4,64.8,30.06,NNW,345,2.0,8.0,98,0.00,,,0.00,VWS V15.00,2017-09-19 06:47:00,
2017-09-19 02:48:00,65.4,64.8,30.06,NNW,345,4.0,8.0,98,0.00,,,0.00,VWS V15.00,2017-09-19 06:48:00,
2017-09-19 02:49:00,65.4,64.8,30.06,North,349,4.0,8.0,98,0.00,,,0.00,VWS V15.00,2017-09-19 06:49:00,
2017-09-19 02:50:00,65.4,64.8,30.06,NNW,340,7.0,8.0,98,0.00,,,0.00,VWS V15.00,2017-09-19 06:50:00,
2017-09-19 02:51:00,65.4,64.8,30.06,NNW,344,4.0,8.0,98,0.00,,,0.00,VWS V15.00,2017-09-19 06:51:00,
2017-09-19 02:52:00,65.4,64.8,30.06,NNW,348,4.0,8.0,98,0.00,,,0.00,VWS V15.00,2017-09-19 06:52:00,
2017-09-19 02:53:00,65.5,64.9,30.06,NNW,348,2.0,8.0,98,0.00,,,0.00,VWS V15.00,2017-09-19 06:53:00,
2017-09-19 02:54:00,65.5,64.9,30.06,NNW,342,2.0,8.0,98,0.00,,,0.00,VWS V15.00,2017-09-19 06:54:00,
2017-09-19 02:55:00,65.5,64.9,30.06,NNW,344,2.0,8.0,98,0.00,,,0.00,VWS V15.00,2017-09-19 06:55:00,
2017-09-19 02:56:00,65.5,64.9,30.06,NNW,344,4.0,8.0,98,0.00,,,0.00,VWS V15.00,2017-09-19 06:56:00,
2017-09-19 02:57:00,65.5,64.9,30.06,NNW,348,1.0,8.0,98,0.00,,,0.00,VWS V15.00,2017-09-19 06:57:00,
2017-09-19 02:58:00,65.5,64.9,30.06,NNW,347,5.0,8.0,98,0.00,,,0.00,VWS V15.00,2017-09-19 06:58:00,
2017-09-19 02:59:00,65.5,64.9,30.06,North,355,4.0,8.0,98,0.00,,,0.00,VWS V15.00,2017-09-19 06:59:00,
2017-09-19 03:00:00,65.5,64.9,30.06,NNW,348,4.0,8.0,98,0.00,,,0.00,VWS V15.00,2017-09-19 07:00:00,
2017-09-19 03:01:00,65.5,64.9,30.06,North,355,3.0,5.0,98,0.00,,,0.00,VWS V15.00,2017-09-19 07:01:00,
2017-09-19 03:02:00,65.5,64.9,30.06,NNE,15,4.0,6.0,98,0.00,,,0.00,VWS V15.00,2017-09-19 07:02:00,
2017-09-19 03:03:00,65.5,64.9,30.06,NNW,333,4.0,6.0,98,0.00,,,0.00,VWS V15.00,2017-09-19 07:03:00,
2017-09-19 03:04:00,65.5,64.9,30.06,North,350,5.0,6.0,98,0.00,,,0.00,VWS V15.00,2017-09-19 07:04:00,
2017-09-19 03:05:00,65.5,64.9,30.06,NNW,331,3.0,6.0,98,0.00,,,0.00,VWS V15.00,2017-09-19 07:05:00,
2017-09-19 03:06:00,65.5,64.9,30.06,NW,319,5.0,6.0,98,0.00,,,0.00,VWS V15.00,2017-09-19 07:06:00,
2017-09-19 03:07:00,65.5,64.9,30.06,NNW,346,2.0,7.0,98,0.00,,,0.00,VWS V15.00,2017-09-19 07:07:00,
2017-09-19 03:08:00,65.5,64.9,30.06,NNW,346,2.0,7.0,98,0.00,,,0.00,VWS V15.00,2017-09-19 07:08:00,
2017-09-19 03:09:00,65.5,64.9,30.06,NNW,343,7.0,7.0,98,0.00,,,0.00,VWS V15.00,2017-09-19 07:09:00,
2017-09-19 03:10:00,65.5,64.9,30.06,North,355,4.0,7.0,98,0.00,,,0.00,VWS V15.00,2017-09-19 07:10:00,
2017-09-19 03:11:00,65.5,64.9,30.06,North,355,2.0,7.0,98,0.00,,,0.00,VWS V15.00,2017-09-19 07:11:00,
2017-09-19 03:12:00,65.5,64.9,30.06,NNW,344,3.0,7.0,98,0.00,,,0.00,VWS V15.00,2017-09-19 07:12:00,
2017-09-19 03:13:00,65.5,64.9,30.06,NNW,345,2.0,7.0,98,0.00,,,0.00,VWS V15.00,2017-09-19 07:13:00,
2017-09-19 03:14:00,65.5,64.9,30.06,NNW,346,5.0,7.0,98,0.00,,,0.00,VWS V15.00,2017-09-19 07:14:00,
2017-09-19 03:15:00,65.5,64.9,30.06,NNW,345,5.0,7.0,98,0.00,,,0.00,VWS V15.00,2017-09-19 07:15:00,
2017-09-19 03:16:00,65.5,64.9,30.05,NNW,345,5.0,7.0,98,0.00,,,0.00,VWS V15.00,2017-09-19 07:16:00,
2017-09-19 03:17:00,65.5,64.9,30.06,NNW,346,2.0,7.0,98,0.00,,,0.00,VWS V15.00,2017-09-19 07:17:00,
2017-09-19 03:18:00,65.5,64.9,30.05,North,350,5.0,7.0,98,0.00,,,0.00,VWS V15.00,2017-09-19 07:18:00,
2017-09-19 03:19:00,65.5,64.9,30.05,North,355,2.0,7.0,98,0.00,,,0.00,VWS V15.00,2017-09-19 07:19:00,
2017-09-19 03:20:00,65.6,65.0,30.05,NNW,344,5.0,7.0,98,0.00,,,0.00,VWS V15.00,2017-09-19 07:20:00,
2017-09-19 03:21:00,65.5,64.9,30.05,NNW,346,2.0,7.0,98,0.00,,,0.00,VWS V15.00,2017-09-19 07:21:00,
2017-09-19 03:22:00,65.5,64.9,30.05,NNW,344,3.0,7.0,98,0.00,,,0.00,VWS V15.00,2017-09-19 07:22:00,
2017-09-19 03:23:00,65.5,64.9,30.06,NNW,344,2.0,7.0,98,0.00,,,0.00,VWS V15.00,2017-09-19 07:23:00,
2017-09-19 03:24:00,65.5,64.9,30.05,North,355,4.0,7.0,98,0.00,,,0.00,VWS V15.00,2017-09-19 07:24:00,
2017-09-19 03:25:00,65.5,64.9,30.05,NNW,345,5.0,7.0,98,0.00,,,0.00,VWS V15.00,2017-09-19 07:25:00,
2017-09-19 03:26:00,65.5,64.9,30.05,NNW,342,4.0,7.0,98,0.00,,,0.00,VWS V15.00,2017-09-19 07:26:00,
2017-09-19 03:27:00,65.5,64.9,30.05,NNW,346,7.0,8.0,98,0.00,,,0.00,VWS V15.00,2017-09-19 07:27:00,
2017-09-19 03:28:00,65.6,65.0,30.05,NNW,348,3.0,8.0,98,0.00,,,0.00,VWS V15.00,2017-09-19 07:28:00,
2017-09-19 03:29:00,65.6,65.0,30.05,NNW,348,3.0,8.0,98,0.00,,,0.00,VWS V15.00,2017-09-19 07:29:00,
2017-09-19 03:30:00,65.5,64.9,30.05,NNW,348,4.0,8.0,98,0.00,,,0.00,VWS V15.00,2017-09-19 07:30:00,
2017-09-19 03:31:00,65.6,65.0,30.05,NNW,338,4.0,4.0,98,0.00,,,0.00,VWS V15.00,2017-09-19 07:31:00,
2017-09-19 03:32:00,65.6,65.0,30.05,NNW,337,2.0,4.0,98,0.00,,,0.00,VWS V15.00,2017-09-19 07:32:00,
2017-09-19 03:33:00,65.6,65.0,30.05,NNW,344,4.0,6.0,98,0.00,,,0.00,VWS V15.00,2017-09-19 07:33:00,
2017-09-19 03:34:00,65.6,65.0,30.05,NNW,346,0.0,6.0,98,0.00,,,0.00,VWS V15.00,2017-09-19 07:34:00,
2017-09-19 03:35:00,65.6,65.0,30.05,NNW,336,0.0,6.0,98,0.00,,,0.00,VWS V15.00,2017-09-19 07:35:00,
2017-09-19 03:36:00,65.6,65.0,30.05,NNW,336,0.0,6.0,98,0.00,,,0.00,VWS V15.00,2017-09-19 07:36:00,
2017-09-19 03:37:00,65.7,65.1,30.05,NNW,346,6.0,6.0,98,0.00,,,0.00,VWS V15.00,2017-09-19 07:37:00,
2017-09-19 03:38:00,65.6,65.0,30.05,NNW,346,3.0,6.0,98,0.00,,,0.00,VWS V15.00,2017-09-19 07:38:00,
2017-09-19 03:39:00,65.6,65.0,30.05,NNW,345,5.0,6.0,98,0.00,,,0.00,VWS V15.00,2017-09-19 07:39:00,
2017-09-19 03:40:00,65.6,65.0,30.05,NNW,348,3.0,6.0,98,0.00,,,0.00,VWS V15.00,2017-09-19 07:40:00,
2017-09-19 03:41:00,65.6,65.0,30.05,NNW,348,3.0,6.0,98,0.00,,,0.00,VWS V15.00,2017-09-19 07:41:00,
2017-09-19 03:42:00,65.7,65.1,30.05,NNW,344,5.0,6.0,98,0.00,,,0.00,VWS V15.00,2017-09-19 07:42:00,
2017-09-19 03:43:00,65.7,65.1,30.05,NNW,348,3.0,6.0,98,0.00,,,0.00,VWS V15.00,2017-09-19 07:43:00,
2017-09-19 03:44:00,65.7,65.1,30.05,NNW,348,3.0,6.0,98,0.00,,,0.00,VWS V15.00,2017-09-19 07:44:00,
2017-09-19 03:45:00,65.7,65.1,30.05,NNW,342,4.0,6.0,98,0.00,,,0.00,VWS V15.00,2017-09-19 07:45:00,
2017-09-19 03:46:00,65.7,65.1,30.05,NNW,342,3.0,6.0,98,0.00,,,0.00,VWS V15.00,2017-09-19 07:46:00,
2017-09-19 03:47:00,65.7,65.1,30.05,NNW,343,2.0,6.0,98,0.00,,,0.00,VWS V15.00,2017-09-19 07:47:00,
2017-09-19 03:48:00,65.7,65.1,30.05,North,350,5.0,6.0,98,0.00,,,0.00,VWS V15.00,2017-09-19 07:48:00,
2017-09-19 03:49:00,65.7,65.1,30.05,North,350,4.0,6.0,98,0.00,,,0.00,VWS V15.00,2017-09-19 07:49:00,
2017-09-19 03:50:00,65.7,65.1,30.04,NNW,333,4.0,6.0,98,0.00,,,0.00,VWS V15.00,2017-09-19 07:50:00,
2017-09-19 03:51:00,65.7,65.1,30.04,North,350,5.0,7.0,98,0.00,,,0.00,VWS V15.00,2017-09-19 07:51:00,
2017-09-19 03:52:00,65.7,65.1,30.05,NNW,348,5.0,7.0,98,0.00,,,0.00,VWS V15.00,2017-09-19 07:52:00,
2017-09-19 03:53:00,65.7,65.1,30.05,NNW,345,6.0,7.0,98,0.00,,,0.00,VWS V15.00,2017-09-19 07:53:00,
2017-09-19 03:54:00,65.7,65.1,30.05,NNW,347,1.0,7.0,98,0.00,,,0.00,VWS V15.00,2017-09-19 07:54:00,
2017-09-19 03:55:00,65.7,65.1,30.05,North,355,2.0,7.0,98,0.00,,,0.00,VWS V15.00,2017-09-19 07:55:00,
2017-09-19 03:56:00,65.7,65.1,30.05,North,355,2.0,7.0,98,0.00,,,0.00,VWS V15.00,2017-09-19 07:56:00,
2017-09-19 03:57:00,65.7,65.1,30.04,North,355,3.0,7.0,98,0.01,,,0.01,VWS V15.00,2017-09-19 07:57:00,
2017-09-19 03:58:00,65.7,65.1,30.05,NNW,337,4.0,7.0,98,0.01,,,0.01,VWS V15.00,2017-09-19 07:58:00,
2017-09-19 03:59:00,65.7,65.1,30.05,North,350,4.0,7.0,98,0.01,,,0.01,VWS V15.00,2017-09-19 07:59:00,
2017-09-19 04:00:00,65.7,65.1,30.05,NNW,339,4.0,7.0,98,0.01,,,0.01,VWS V15.00,2017-09-19 08:00:00,
2017-09-19 04:01:00,65.7,65.1,30.05,North,355,4.0,7.0,98,0.01,,OVC002,0.01,VWS V15.00,2017-09-19 08:01:00,
2017-09-19 04:02:00,65.7,65.1,30.05,NNW,339,3.0,7.0,98,0.01,,OVC002,0.01,VWS V15.00,2017-09-19 08:02:00,
2017-09-19 04:03:00,65.7,65.1,30.05,North,355,2.0,7.0,98,0.01,,OVC002,0.01,VWS V15.00,2017-09-19 08:03:00,
2017-09-19 04:04:00,65.7,65.1,30.05,NNW,341,6.0,7.0,98,0.01,,OVC002,0.01,VWS V15.00,2017-09-19 08:04:00,
2017-09-19 04:05:00,65.7,65.1,30.05,NNW,348,4.0,7.0,98,0.01,,OVC002,0.01,VWS V15.00,2017-09-19 08:05:00,
2017-09-19 04:06:00,65.7,65.1,30.05,NNW,344,4.0,7.0,98,0.01,,OVC002,0.01,VWS V15.00,2017-09-19 08:06:00,
2017-09-19 04:07:00,65.6,65.0,30.05,NNW,345,4.0,7.0,98,0.01,,OVC002,0.01,VWS V15.00,2017-09-19 08:07:00,
2017-09-19 04:08:00,65.6,65.0,30.05,North,355,4.0,8.0,98,0.01,,OVC002,0.01,VWS V15.00,2017-09-19 08:08:00,
2017-09-19 04:09:00,65.7,65.1,30.05,North,350,3.0,8.0,98,0.01,,OVC002,0.01,VWS V15.00,2017-09-19 08:09:00,
2017-09-19 04:10:00,65.7,65.1,30.05,North,350,5.0,8.0,98,0.01,,OVC002,0.01,VWS V15.00,2017-09-19 08:10:00,
2017-09-19 04:11:00,65.7,65.1,30.05,NNW,346,4.0,8.0,98,0.01,,OVC002,0.01,VWS V15.00,2017-09-19 08:11:00,
2017-09-19 04:12:00,65.7,65.1,30.05,NNW,346,2.0,8.0,98,0.01,,OVC002,0.01,VWS V15.00,2017-09-19 08:12:00,
2017-09-19 04:13:00,65.7,65.1,30.05,NNW,333,4.0,8.0,98,0.01,,OVC002,0.01,VWS V15.00,2017-09-19 08:13:00,
2017-09-19 04:14:00,65.7,65.1,30.05,NNW,332,3.0,8.0,98,0.01,,OVC002,0.01,VWS V15.00,2017-09-19 08:14:00,
2017-09-19 04:15:00,65.7,65.1,30.05,NNW,344,5.0,8.0,98,0.01,,OVC002,0.01,VWS V15.00,2017-09-19 08:15:00,
2017-09-19 04:16:00,65.7,65.1,30.05,NNW,342,0.0,8.0,98,0.01,,OVC002,0.01,VWS V15.00,2017-09-19 08:16:00,
2017-09-19 04:17:00,65.7,65.1,30.05,NNW,344,5.0,8.0,98,0.01,,OVC002,0.01,VWS V15.00,2017-09-19 08:17:00,
2017-09-19 04:18:00,65.7,65.1,30.05,North,355,2.0,8.0,98,0.01,,OVC002,0.01,VWS V15.00,2017-09-19 08:18:00,
2017-09-19 04:19:00,65.7,65.1,30.05,NNW,338,3.0,8.0,98,0.01,,OVC002,0.01,VWS V15.00,2017-09-19 08:19:00,
2017-09-19 04:20:00,65.7,65.1,30.05,NNW,340,4.0,8.0,98,0.01,,OVC002,0.01,VWS V15.00,2017-09-19 08:20:00,
2017-09-19 04:21:00,65.7,65.1,30.05,NNW,340,2.0,8.0,98,0.01,,OVC002,0.01,VWS V15.00,2017-09-19 08:21:00,
2017-09-19 04:22:00,65.7,65.1,30.05,NNW,346,6.0,8.0,98,0.01,,OVC002,0.01,VWS V15.00,2017-09-19 08:22:00,
2017-09-19 04:23:00,65.7,65.1,30.05,North,350,6.0,8.0,98,0.01,,OVC002,0.01,VWS V15.00,2017-09-19 08:23:00,
2017-09-19 04:24:00,65.7,65.1,30.05,North,349,2.0,8.0,98,0.01,,OVC002,0.01,VWS V15.00,2017-09-19 08:24:00,
2017-09-19 04:25:00,65.7,65.1,30.05,NNW,330,8.0,8.0,98,0.01,,OVC002,0.01,VWS V15.00,2017-09-19 08:25:00,
2017-09-19 04:26:00,65.7,65.1,30.05,NNW,348,4.0,8.0,98,0.01,,OVC002,0.01,VWS V15.00,2017-09-19 08:26:00,
2017-09-19 04:27:00,65.7,65.1,30.05,North,349,1.0,8.0,98,0.01,,OVC002,0.01,VWS V15.00,2017-09-19 08:27:00,
2017-09-19 04:28:00,65.7,65.1,30.05,NNW,337,3.0,8.0,98,0.01,,OVC002,0.01,VWS V15.00,2017-09-19 08:28:00,
2017-09-19 04:29:00,65.7,65.1,30.05,NNW,340,3.0,8.0,98,0.01,,OVC002,0.01,VWS V15.00,2017-09-19 08:29:00,
2017-09-19 04:30:00,65.8,65.2,30.05,NNW,332,5.0,8.0,98,0.01,,OVC002,0.01,VWS V15.00,2017-09-19 08:30:00,
2017-09-19 04:31:00,65.8,65.2,30.05,NW,317,5.0,6.0,98,0.01,,OVC002,0.01,VWS V15.00,2017-09-19 08:31:00,
2017-09-19 04:32:00,65.8,65.2,30.05,NNW,342,6.0,6.0,98,0.01,,OVC002,0.01,VWS V15.00,2017-09-19 08:32:00,
2017-09-19 04:33:00,65.8,65.2,30.05,NNW,344,4.0,8.0,98,0.01,,OVC002,0.01,VWS V15.00,2017-09-19 08:33:00,
2017-09-19 04:34:00,65.8,65.2,30.05,NNW,347,6.0,9.0,98,0.01,,OVC002,0.01,VWS V15.00,2017-09-19 08:34:00,
2017-09-19 04:35:00,65.8,65.2,30.05,NNW,344,6.0,9.0,98,0.01,,OVC002,0.01,VWS V15.00,2017-09-19 08:35:00,
2017-09-19 04:36:00,65.8,65.2,30.05,NNW,338,6.0,9.0,98,0.01,,OVC002,0.01,VWS V15.00,2017-09-19 08:36:00,
2017-09-19 04:37:00,65.8,65.2,30.05,North,10,6.0,9.0,98,0.01,,OVC002,0.01,VWS V15.00,2017-09-19 08:37:00,
2017-09-19 04:38:00,65.8,65.2,30.04,North,349,5.0,9.0,98,0.01,,OVC002,0.01,VWS V15.00,2017-09-19 08:38:00,
2017-09-19 04:39:00,65.7,65.1,30.05,NNW,343,5.0,9.0,98,0.01,,OVC002,0.01,VWS V15.00,2017-09-19 08:39:00,
2017-09-19 04:40:00,65.7,65.1,30.05,NNW,347,4.0,9.0,98,0.01,,OVC002,0.01,VWS V15.00,2017-09-19 08:40:00,
2017-09-19 04:41:00,65.8,65.2,30.05,North,355,5.0,9.0,98,0.01,,OVC002,0.01,VWS V15.00,2017-09-19 08:41:00,
2017-09-19 04:42:00,65.8,65.2,30.05,NNW,345,6.0,9.0,98,0.01,,OVC002,0.01,VWS V15.00,2017-09-19 08:42:00,
2017-09-19 04:43:00,65.8,65.2,30.05,North,11,4.0,9.0,98,0.01,,OVC002,0.01,VWS V15.00,2017-09-19 08:43:00,
2017-09-19 04:44:00,65.8,65.2,30.05,North,355,6.0,9.0,98,0.01,,OVC002,0.01,VWS V15.00,2017-09-19 08:44:00,
2017-09-19 04:45:00,65.8,65.2,30.05,NNW,339,5.0,10.0,98,0.01,,OVC002,0.01,VWS V15.00,2017-09-19 08:45:00,
2017-09-19 04:46:00,65.7,65.1,30.05,North,350,7.0,10.0,98,0.01,,OVC002,0.01,VWS V15.00,2017-09-19 08:46:00,
2017-09-19 04:47:00,65.7,65.1,30.04,NNW,346,7.0,10.0,98,0.01,,OVC002,0.01,VWS V15.00,2017-09-19 08:47:00,
2017-09-19 04:48:00,65.7,65.1,30.05,NNW,336,4.0,10.0,98,0.01,,OVC002,0.01,VWS V15.00,2017-09-19 08:48:00,
2017-09-19 04:49:00,65.7,65.1,30.05,NNW,344,3.0,10.0,98,0.01,,OVC002,0.01,VWS V15.00,2017-09-19 08:49:00,
2017-09-19 04:50:00,65.7,65.1,30.05,NNW,344,5.0,10.0,98,0.01,,OVC002,0.01,VWS V15.00,2017-09-19 08:50:00,
2017-09-19 04:51:00,65.8,65.2,30.05,NNW,342,4.0,10.0,98,0.01,,OVC002,0.01,VWS V15.00,2017-09-19 08:51:00,
2017-09-19 04:52:00,65.8,65.2,30.05,NNW,340,2.0,10.0,98,0.01,,OVC002,0.01,VWS V15.00,2017-09-19 08:52:00,
2017-09-19 04:53:00,65.8,65.2,30.05,North,11,7.0,10.0,98,0.01,,OVC002,0.01,VWS V15.00,2017-09-19 08:53:00,
2017-09-19 04:54:00,65.9,65.3,30.05,North,355,3.0,10.0,98,0.01,,OVC002,0.01,VWS V15.00,2017-09-19 08:54:00,
2017-09-19 04:55:00,65.9,65.3,30.05,NNW,346,5.0,10.0,98,0.01,,OVC002,0.01,VWS V15.00,2017-09-19 08:55:00,
2017-09-19 04:56:00,65.9,65.3,30.05,NNW,348,6.0,10.0,98,0.01,,OVC002,0.01,VWS V15.00,2017-09-19 08:56:00,
2017-09-19 04:57:00,65.9,65.3,30.05,NNW,348,1.0,10.0,98,0.01,,OVC002,0.01,VWS V15.00,2017-09-19 08:57:00,
2017-09-19 04:58:00,65.9,65.3,30.05,NNW,346,5.0,10.0,98,0.01,,OVC002,0.01,VWS V15.00,2017-09-19 08:58:00,
2017-09-19 04:59:00,65.9,65.3,30.05,NNW,338,5.0,10.0,98,0.01,,OVC002,0.01,VWS V15.00,2017-09-19 08:59:00,
2017-09-19 05:00:00,65.9,65.3,30.05,NNW,344,6.0,10.0,98,0.01,,OVC002,0.01,VWS V15.00,2017-09-19 09:00:00,
2017-09-19 05:01:00,65.9,65.3,30.05,NNW,329,4.0,10.0,98,0.00,,-RA,0.01,VWS V15.00,2017-09-19 09:01:00,
2017-09-19 05:02:00,65.9,65.3,30.05,North,355,2.0,10.0,98,0.00,,-RA,0.01,VWS V15.00,2017-09-19 09:02:00,
2017-09-19 05:03:00,65.9,65.3,30.05,North,355,2.0,10.0,98,0.00,,-RA,0.01,VWS V15.00,2017-09-19 09:03:00,
2017-09-19 05:04:00,65.9,65.3,30.05,NNW,337,3.0,10.0,98,0.00,,-RA,0.01,VWS V15.00,2017-09-19 09:04:00,
2017-09-19 05:05:00,65.9,65.3,30.05,NNW,344,0.0,10.0,98,0.00,,-RA,0.01,VWS V15.00,2017-09-19 09:05:00,
2017-09-19 05:06:00,65.9,65.3,30.05,NNW,346,4.0,10.0,98,0.00,,-RA,0.01,VWS V15.00,2017-09-19 09:06:00,
2017-09-19 05:07:00,65.9,65.3,30.05,NNW,344,6.0,10.0,98,0.00,,-RA,0.01,VWS V15.00,2017-09-19 09:07:00,
2017-09-19 05:08:00,65.9,65.3,30.05,NNW,344,2.0,10.0,98,0.00,,-RA,0.01,VWS V15.00,2017-09-19 09:08:00,
2017-09-19 05:09:00,65.9,65.3,30.05,NW,321,6.0,10.0,98,0.00,,-RA,0.01,VWS V15.00,2017-09-19 09:09:00,
2017-09-19 05:10:00,65.9,65.3,30.05,NNW,343,5.0,10.0,98,0.00,,-RA,0.01,VWS V15.00,2017-09-19 09:10:00,
2017-09-19 05:11:00,65.9,65.3,30.05,NNW,340,6.0,10.0,98,0.00,,-RA,0.01,VWS V15.00,2017-09-19 09:11:00,
2017-09-19 05:12:00,65.9,65.3,30.05,NNW,343,6.0,10.0,98,0.00,,-RA,0.01,VWS V15.00,2017-09-19 09:12:00,
2017-09-19 05:13:00,65.9,65.3,30.05,NNW,331,8.0,10.0,98,0.00,,-RA,0.01,VWS V15.00,2017-09-19 09:13:00,
2017-09-19 05:14:00,65.9,65.3,30.05,North,355,4.0,10.0,98,0.00,,-RA,0.01,VWS V15.00,2017-09-19 09:14:00,
2017-09-19 05:15:00,65.9,65.3,30.05,North,355,6.0,10.0,98,0.00,,-RA,0.01,VWS V15.00,2017-09-19 09:15:00,
2017-09-19 05:16:00,65.9,65.3,30.05,NNW,345,4.0,10.0,98,0.00,,-RA,0.01,VWS V15.00,2017-09-19 09:16:00,
2017-09-19 05:17:00,65.9,65.3,30.05,North,350,7.0,10.0,98,0.00,,-RA,0.01,VWS V15.00,2017-09-19 09:17:00,
2017-09-19 05:18:00,65.9,65.3,30.05,North,355,8.0,10.0,98,0.00,,-RA,0.01,VWS V15.00,2017-09-19 09:18:00,
2017-09-19 05:19:00,65.9,65.3,30.05,North,351,7.0,11.0,98,0.00,,-RA,0.01,VWS V15.00,2017-09-19 09:19:00,
2017-09-19 05:20:00,65.9,65.3,30.05,WNW,303,7.0,11.0,98,0.00,,-RA,0.01,VWS V15.00,2017-09-19 09:20:00,
2017-09-19 05:21:00,65.9,65.3,30.04,North,355,7.0,11.0,98,0.00,,-RA,0.01,VWS V15.00,2017-09-19 09:21:00,
2017-09-19 05:22:00,65.9,65.3,30.05,North,349,2.0,11.0,98,0.00,,-RA,0.01,VWS V15.00,2017-09-19 09:22:00,
2017-09-19 05:23:00,65.9,65.3,30.05,NNW,340,5.0,11.0,98,0.00,,-RA,0.01,VWS V15.00,2017-09-19 09:23:00,
2017-09-19 05:24:00,65.9,65.3,30.05,North,350,7.0,11.0,98,0.00,,-RA,0.01,VWS V15.00,2017-09-19 09:24:00,
2017-09-19 05:25:00,65.9,65.3,30.05,NNW,348,7.0,11.0,98,0.00,,-RA,0.01,VWS V15.00,2017-09-19 09:25:00,
2017-09-19 05:26:00,65.9,65.3,30.05,North,355,7.0,11.0,98,0.00,,-RA,0.01,VWS V15.00,2017-09-19 09:26:00,
2017-09-19 05:27:00,65.9,65.3,30.05,NNW,346,4.0,11.0,98,0.00,,-RA,0.01,VWS V15.00,2017-09-19 09:27:00,
2017-09-19 05:28:00,65.8,65.2,30.05,NNW,346,4.0,11.0,98,0.00,,-RA,0.01,VWS V15.00,2017-09-19 09:28:00,
2017-09-19 05:29:00,65.8,65.2,30.05,North,355,1.0,11.0,98,0.00,,-RA,0.01,VWS V15.00,2017-09-19 09:29:00,
2017-09-19 05:30:00,65.8,65.2,30.05,North,350,4.0,11.0,98,0.00,,-RA,0.01,VWS V15.00,2017-09-19 09:30:00,
2017-09-19 05:31:00,65.9,65.3,30.05,NNW,342,7.0,8.0,98,0.00,,-RA,0.01,VWS V15.00,2017-09-19 09:31:00,
2017-09-19 05:32:00,65.9,65.3,30.05,North,355,6.0,9.0,98,0.00,,-RA,0.01,VWS V15.00,2017-09-19 09:32:00,
2017-09-19 05:33:00,65.8,65.2,30.05,NW,326,3.0,9.0,98,0.00,,-RA,0.01,VWS V15.00,2017-09-19 09:33:00,
2017-09-19 05:34:00,65.8,65.2,30.05,NNW,342,6.0,9.0,98,0.00,,-RA,0.01,VWS V15.00,2017-09-19 09:34:00,
2017-09-19 05:35:00,65.8,65.2,30.05,NNW,344,7.0,9.0,98,0.00,,-RA,0.01,VWS V15.00,2017-09-19 09:35:00,
2017-09-19 05:36:00,65.8,65.2,30.05,NNW,342,5.0,9.0,98,0.00,,-RA,0.01,VWS V15.00,2017-09-19 09:36:00,
2017-09-19 05:37:00,65.8,65.2,30.05,NNW,344,5.0,9.0,98,0.00,,-RA,0.01,VWS V15.00,2017-09-19 09:37:00,
2017-09-19 05:38:00,65.8,65.2,30.04,NNW,336,5.0,9.0,98,0.00,,-RA,0.01,VWS V15.00,2017-09-19 09:38:00,
2017-09-19 05:39:00,65.8,65.2,30.04,North,355,5.0,9.0,98,0.00,,-RA,0.01,VWS V15.00,2017-09-19 09:39:00,
2017-09-19 05:40:00,65.8,65.2,30.04,NNW,342,6.0,9.0,98,0.00,,-RA,0.01,VWS V15.00,2017-09-19 09:40:00,
2017-09-19 05:41:00,65.8,65.2,30.05,NNW,346,8.0,9.0,98,0.00,,,0.01,VWS V15.00,2017-09-19 09:41:00,
2017-09-19 05:42:00,65.8,65.2,30.05,NNW,340,6.0,10.0,98,0.00,,,0.01,VWS V15.00,2017-09-19 09:42:00,
2017-09-19 05:43:00,65.8,65.2,30.04,NNW,348,6.0,10.0,98,0.00,,,0.01,VWS V15.00,2017-09-19 09:43:00,
2017-09-19 05:44:00,65.8,65.2,30.04,NNW,348,6.0,10.0,98,0.00,,,0.01,VWS V15.00,2017-09-19 09:44:00,
2017-09-19 05:45:00,65.8,65.2,30.04,North,355,6.0,10.0,98,0.00,,,0.01,VWS V15.00,2017-09-19 09:45:00,
2017-09-19 05:46:00,65.8,65.2,30.04,NW,325,7.0,10.0,98,0.00,,,0.01,VWS V15.00,2017-09-19 09:46:00,
2017-09-19 05:47:00,65.8,65.2,30.04,NNW,346,4.0,10.0,98,0.00,,,0.01,VWS V15.00,2017-09-19 09:47:00,
2017-09-19 05:48:00,65.8,65.2,30.04,NNW,345,3.0,10.0,98,0.00,,,0.01,VWS V15.00,2017-09-19 09:48:00,
2017-09-19 05:49:00,65.8,65.2,30.05,NNW,344,3.0,10.0,98,0.00,,,0.01,VWS V15.00,2017-09-19 09:49:00,
2017-09-19 05:50:00,65.8,65.2,30.05,North,349,5.0,10.0,98,0.00,,,0.01,VWS V15.00,2017-09-19 09:50:00,
2017-09-19 05:51:00,65.8,65.2,30.05,NNW,346,7.0,10.0,98,0.00,,,0.01,VWS V15.00,2017-09-19 09:51:00,
2017-09-19 05:52:00,65.8,65.2,30.05,ENE,71,1.0,10.0,98,0.00,,,0.01,VWS V15.00,2017-09-19 09:52:00,
2017-09-19 05:53:00,65.8,65.2,30.05,NNW,342,3.0,10.0,98,0.00,,,0.01,VWS V15.00,2017-09-19 09:53:00,
2017-09-19 05:54:00,65.8,65.2,30.05,NNW,340,6.0,10.0,98,0.00,,,0.01,VWS V15.00,2017-09-19 09:54:00,
2017-09-19 05:55:00,65.8,65.2,30.05,North,350,4.0,10.0,98,0.00,,,0.01,VWS V15.00,2017-09-19 09:55:00,
2017-09-19 05:56:00,65.8,65.2,30.05,NNW,338,3.0,10.0,98,0.00,,,0.01,VWS V15.00,2017-09-19 09:56:00,
2017-09-19 05:57:00,65.7,65.1,30.05,NNW,348,4.0,10.0,98,0.00,,,0.01,VWS V15.00,2017-09-19 09:57:00,
2017-09-19 05:58:00,65.8,65.2,30.05,NNW,348,3.0,10.0,98,0.00,,,0.01,VWS V15.00,2017-09-19 09:58:00,
2017-09-19 05:59:00,65.7,65.1,30.05,NNW,342,2.0,10.0,98,0.00,,,0.01,VWS V15.00,2017-09-19 09:59:00,
2017-09-19 06:00:00,65.8,65.2,30.05,North,349,3.0,10.0,98,0.00,,,0.01,VWS V15.00,2017-09-19 10:00:00,